Location: Emporia
(38.4040°N, 96.1810°W)
Time: 14:10:20
(UTC-05:00)

ISS - Visible Passes

Search period start: 03 August 2015 00:00
Search period end: 13 August 2015 00:00
Orbit: 401 x 403 km, 51.6° (Epoch: 03 August)

Date Brightness Start Highest point End Pass type
(mag) Time Alt. Az. Time Alt. Az. Time Alt. Az.
03 Aug -0.1 22:34:28 10° NW 22:36:19 14° NNW 22:38:07 10° NNE visible
04 Aug -0.5 21:40:31 10° WNW 21:43:02 20° NNW 21:45:30 10° NNE visible
05 Aug 0.2 22:26:52 10° NNW 22:27:03 10° NNW 22:27:12 10° N visible
06 Aug -0.2 21:32:02 10° NW 21:33:40 13° NNW 21:35:14 10° N visible
07 Aug 0.2 23:54:11 10° N 23:54:15 10° N 23:54:15 10° N visible
09 Aug 0.1 23:43:46 10° NNW 23:44:08 12° NNW 23:44:08 12° NNW visible
10 Aug -0.5 22:51:07 10° N 22:52:39 13° NNE 22:52:48 13° NNE visible
11 Aug 0.0 23:33:32 10° NNW 23:34:03 13° NNW 23:34:03 13° NNW visible
12 Aug -1.0 22:40:42 10° NNW 22:42:44 19° NNE 22:42:44 19° NNE visible
